User: anonymous   Login
Location: Pella
(41.4080°N, 92.9160°W)
Time: 19:19:50
(UTC-05:00)
Language:

Iridium 91 - Orbit

View from above orbital plane
View from above orbital plane
View from above satellite
View from above satellite

Ground track
Ground track

The orbit data is extracted from the following two-line orbital elements,

1 27372U 02005A   17175.35434492 +.00000145 +00000-0 +44805-4 0  9998
2 27372 086.3970 284.1624 0002576 085.4254 331.9337 14.34216012812601
Epoch (UTC): 24 June 2017 08:30:15
Eccentricity: 0.0002576
inclination: 86.3970°
perigee height: 776 km
apogee height: 779 km
right ascension of ascending node: 284.1624°
argument of perigee: 85.4254°
revolutions per day: 14.34216012
mean anomaly at epoch: 331.9337°
orbit number at epoch: 81260

The dashed part of the orbit path shows where the satellite is in the earth's shadow,  

DLR